This is the latest recevied weather packets stored in our database for station/object EA5AER-5. If no packets are shown the sender has not sent any weather packets the latest 10 day(s).
| Time | Temp. | Humidity | Pressure | Rain* | Wind** | Luminosity | Snow |
|---|---|---|---|---|---|---|---|
| 1777827004 | 18.89° C | 78% | 1010.8 hPa | 0 mm | - | 193 W/m² | - |
| 1777825908 | 18.89° C | 78% | 1010.8 hPa | 0 mm | - | 193 W/m² | - |
| 1777824657 | 18.89° C | 78% | 1010.5 hPa | 0 mm | - | 279 W/m² | - |
| 1777823488 | 19.44° C | 78% | 1010.7 hPa | 0 mm | - | 308 W/m² | - |
| 1777822385 | 19.44° C | 77% | 1011.5 hPa | 0 mm | - | 309 W/m² | - |
| 1777821184 | 19.44° C | 77% | 1011.5 hPa | 0 mm | - | 309 W/m² | - |
| 1777819949 | 19.44° C | 77% | 1011.5 hPa | 0 mm | - | 309 W/m² | - |
| 1777818741 | 19.44° C | 77% | 1011.5 hPa | 0 mm | - | 309 W/m² | - |
| 1777817584 | 19.44° C | 74% | 1011.9 hPa | 0 mm | - | 264 W/m² | - |
| 1777816343 | 20° C | 73% | 1011.9 hPa | 0 mm | - | 323 W/m² | - |
| 1777815235 | 19.44° C | 74% | 1012.4 hPa | 0 mm | - | 513 W/m² | - |
| 1777814094 | 19.44° C | 74% | 1012.4 hPa | 0 mm | - | 513 W/m² | - |
| 1777812935 | 19.44° C | 74% | 1012.4 hPa | 0 mm | - | 513 W/m² | - |
| 1777812899 | 19.44° C | 74% | 1012.4 hPa | 0 mm | - | 513 W/m² | - |
| 1777811729 | 19.44° C | 74% | 1012.4 hPa | 0 mm | - | 513 W/m² | - |
| 1777810496 | 19.44° C | 74% | 1012.4 hPa | 0 mm | - | 513 W/m² | - |
| 1777809359 | 19.44° C | 74% | 1012.4 hPa | 0 mm | - | 513 W/m² | - |
| 1777808160 | 19.44° C | 72% | 1012.6 hPa | 0 mm | - | 380 W/m² | - |
| 1777806923 | 19.44° C | 73% | 1012.9 hPa | 0 mm | - | 628 W/m² | - |
| 1777805687 | 19.44° C | 73% | 1012.9 hPa | 0 mm | - | 628 W/m² | - |
| 1777804379 | 19.44° C | 72% | 1013.4 hPa | 0 mm | - | 200 W/m² | - |
| 1777803234 | 19.44° C | 72% | 1013.4 hPa | 0 mm | - | 200 W/m² | - |
| 1777802023 | 19.44° C | 74% | 1013.5 hPa | 0 mm | - | 230 W/m² | - |
| 1777800799 | 18.89° C | 76% | 1013.3 hPa | 0 mm | - | 304 W/m² | - |
| 1777799619 | 18.89° C | 76% | 1013.8 hPa | 0 mm | - | 47 W/m² | - |
* Rain latest hour (hover to see other rain measurements)
** Current wind speed in m/s (hover to see current wind gust speed)